Flag Weather past 2 weeks in Adelaide, South Australia, Australia

Now
59 °F

Passing clouds.


Feels Like: 58 °F
Forecast: 55 / 77 °F
Wind: 8 mph from Southeast

Location: Adelaide Airport

Current Time: Nov 27, 2014 at 5:37:56 AM

Latest Report: Nov 27, 2014 at 5:00 AM


Visibility: N/A

Pressure: 30.18 "Hg

Humidity: 68%

Dew point: 48 °F

Location of AdelaideLocation

Historic Weather in Adelaide — Graph

°F

Adelaide temperature yesterday

Maximum temperature yesterday: 75 °F (at 4:00 PM)
Minimum temperature yesterday: 52 °F (at 5:00 AM)
Average temperature yesterday: 63 °F

Past Weeks' High & Low Weather Summary

 TemperatureHumidityPressure
High99 °F (Nov 13, 1:00 PM)100% (Nov 23, 6:00 AM)30.24 "Hg (Nov 23, 6:00 AM)
Low52 °F (Nov 19, 3:00 AM)4% (Nov 13, 4:00 PM)29.65 "Hg (Nov 22, 4:00 AM)
Average67 °F55%29.94 "Hg
* Reported Nov 12 4:30 AM — Nov 27 4:30 AM, Adelaide, Weather by CustomWeather, © 2014

Note: Actual official high and low records may vary slightly from our data, if they occured in-between our weather recording intervals... More about our weather records

Advertising

Adelaide weather history for previous 24 hours

 ConditionsComfort  
Time TempWeatherWind HumidityBarometerVisibility
4:30 AM
Nov 27
59 °FPassing clouds.13 mph72%30.18 "HgN/A
4:00 AM59 °FPassing clouds.10 mph77%30.18 "HgN/A
3:30 AM59 °FPassing clouds.10 mph77%30.18 "HgN/A
3:00 AM59 °FPassing clouds.8 mph77%30.18 "HgN/A
2:30 AM59 °FPassing clouds.8 mph77%30.18 "HgN/A
2:00 AM59 °FPassing clouds.10 mph77%30.18 "HgN/A
1:30 AM61 °FPassing clouds.12 mph72%30.21 "HgN/A
1:00 AM61 °FPassing clouds.12 mph72%30.21 "HgN/A
12:30 AM61 °FPassing clouds.10 mph72%30.21 "HgN/A
12:00 AM61 °FPassing clouds.10 mph72%30.21 "HgN/A
11:30 PM
Nov 26
61 °FPassing clouds.8 mph72%30.21 "HgN/A
11:00 PM61 °FPassing clouds.12 mph72%30.21 "HgN/A
10:30 PM61 °FPassing clouds.17 mph68%30.21 "HgN/A
9:30 PM61 °FPassing clouds.13 mph68%30.21 "HgN/A
9:00 PM63 °FPassing clouds.15 mph64%30.21 "HgN/A
8:30 PM63 °FPassing clouds.15 mph64%30.18 "HgN/A
7:30 PM66 °FPassing clouds.17 mph52%30.18 "HgN/A
7:00 PM68 °FPassing clouds.18 mph46%30.15 "HgN/A
6:30 PM68 °FPassing clouds.16 mph46%30.15 "HgN/A
6:00 PM70 °FPassing clouds.16 mph40%30.15 "HgN/A
5:30 PM72 °FPassing clouds.18 mph38%30.15 "HgN/A
5:00 PM73 °FPassing clouds.16 mph38%30.15 "HgN/A
4:30 PM73 °FPassing clouds.18 mph38%30.12 "HgN/A
4:00 PM75 °FPassing clouds.20 mph34%30.12 "HgN/A
3:30 PM73 °FPassing clouds.8 mph44%30.12 "HgN/A
3:00 PM70 °FPassing clouds.21 mph53%30.15 "HgN/A
2:30 PM68 °FPassing clouds.21 mph56%30.18 "HgN/A
2:00 PM66 °FPassing clouds.21 mph56%30.18 "HgN/A
1:30 PM66 °FScattered clouds.21 mph56%30.18 "HgN/A
1:00 PM66 °FScattered clouds.20 mph52%30.21 "HgN/A
12:30 PM66 °FScattered clouds.17 mph52%30.21 "HgN/A
12:00 PM66 °FScattered clouds.15 mph52%30.24 "HgN/A
11:30 AM66 °FScattered clouds.14 mph52%30.24 "HgN/A
11:00 AM66 °FScattered clouds.15 mph52%30.24 "HgN/A
10:30 AM66 °FScattered clouds.14 mph52%30.24 "HgN/A
10:00 AM66 °FScattered clouds.8 mph46%30.24 "HgN/A
9:30 AM64 °FScattered clouds.8 mph49%30.24 "HgN/A
9:00 AM64 °FScattered clouds.8 mph49%30.24 "HgN/A
8:30 AM63 °FScattered clouds.9 mph56%30.21 "HgN/A
8:00 AM61 °FScattered clouds.6 mph59%30.21 "HgN/A
7:30 AM59 °FScattered clouds.2 mph63%30.21 "HgN/A
7:00 AM57 °FScattered clouds.3 mph67%30.18 "HgN/A
6:30 AM54 °FPassing clouds.3 mph77%30.18 "HgN/A
6:00 AM54 °FPassing clouds.3 mph72%30.18 "HgN/A
5:30 AM52 °FPassing clouds.5 mph77%30.18 "HgN/A
5:00 AM52 °FClear.5 mph82%30.15 "Hg10 mi
Weather by CustomWeather, © 2014

See weather overviewHow to use our weather pages